This demonstration page uses our WeatherBlox Daily Observations layout. Learn more.

39.01783, -85.05884

Hourly Observations for November 1, 2019

Temp ( °F °C ) Dew Point ( °F °C ) Humidity (%) Winds ( mph kmh ) Pressure ( in mb ) Visibility ( mi km ) Precip ( " mm )
12:52 am 00:52 Cloudy 34 1.1 26 -3.3 73 73 W 16 26 30.21 1023 10 16.0934 0 0
1:52 am 01:52 Cloudy 33 0.6 26 -3.3 75 75 W 12 19 30.23 1024 10 16.0934 0 0
2:52 am 02:52 Cloudy 33 0.6 25 -3.9 72 72 W 15 24 30.24 1024 10 16.0934 0 0
3:52 am 03:52 Partly Cloudy 31 -0.6 22 -5.6 69 69 W 16 26 30.26 1025 10 16.0934 0 0
4:52 am 04:52 Clear 29 -1.7 22 -5.6 75 75 WSW 7 11 30.27 1025 10 16.0934 0 0
5:52 am 05:52 Clear 29 -1.7 23 -5 78 78 WSW 5 7 30.3 1026 10 16.0934 0 0
6:52 am 06:52 Clear 29 -1.7 23 -5 78 78 WSW 8 13 30.32 1027 10 16.0934 0 0
7:52 am 07:52 Clear 29 -1.7 23 -5 78 78 SW 8 13 30.34 1027 10 16.0934 0 0
8:52 am 08:52 Sunny 29 -1.7 25 -3.9 85 85 SW 6 9 30.35 1028 9 14.48406 0 0
9:52 am 09:52 Mostly Sunny 33 0.6 26 -3.3 75 75 WSW 9 15 30.35 1028 10 16.0934 0 0
10:52 am 10:52 Mostly Sunny 36 2.2 26 -3.3 67 67 WSW 8 13 30.38 1029 10 16.0934 0 0
11:52 am 11:52 Mostly Sunny 39 3.9 26 -3.3 60 60 SW 8 13 30.37 1029 10 16.0934 0 0
12:52 pm 12:52 Mostly Sunny 42 5.6 24 -4.4 49 49 WSW 8 13 30.37 1028 10 16.0934 0 0
1:52 pm 13:52 Mostly Sunny 44 6.7 25 -3.9 47 47 W 7 11 30.34 1027 10 16.0934 0 0
2:52 pm 14:52 Sunny 45 7.2 25 -3.9 46 46 SSW 7 11 30.32 1027 10 16.0934 0 0
3:52 pm 15:52 Sunny 46 7.8 26 -3.3 46 46 SW 10 17 30.3 1026 10 16.0934 0 0
4:52 pm 16:52 Sunny 46 7.8 25 -3.9 44 44 SSE 7 11 30.29 1026 10 16.0934 0 0
5:52 pm 17:52 Sunny 45 7.2 26 -3.3 48 48 S 8 13 30.29 1026 10 16.0934 0 0
6:52 pm 18:52 Clear 41 5 26 -3.3 55 55 SSW 6 9 30.28 1025 10 16.0934 0 0
7:52 pm 19:52 Clear 40 4.4 27 -2.8 60 60 S 5 7 30.29 1026 10 16.0934 0 0
9:52 pm 21:52 Clear 38 3.3 26 -3.3 62 62 SSW 6 9 30.27 1025 10 16.0934 0 0
10:52 pm 22:52 Clear 35 1.7 27 -2.8 72 72 S 6 9 30.26 1025 10 16.0934 0 0
11:52 pm 23:52 Clear 34 1.1 26 -3.3 73 73 SSW 6 9 30.24 1024 10 16.0934 0 0

Powered by AerisWeather